Theta_e
314 315 314 314 315 316 317 317 317 316 315 315 314 314 314 312 310 315 321 317 317 320 318 322 324 327 329 327 323 323 325 332 339 344 342 337 330 330 333 336 336 343 345 340 337
314 314 314 314 315 316 316 317 318 316 316 315 315 314 314 313 313 320 318 322 320 320 316 323 323 325 326 323 322 323 326 330 335 338 338 335 330 329 334 338 340 343 341 339 339
314 314 314 314 315 315 316 317 318 317 316 315 314 314 314 313 327 330 325 323 320 319 315 322 324 325 323 321 321 324 327 330 327 329 327 330 330 332 334 341 341 343 341 338 338
313 314 313 313 314 315 317 317 317 317 316 315 315 314 313 320 333 325 326 322 321 318 315 317 321 323 321 320 321 324 327 328 328 329 329 327 327 328 332 339 340 340 339 338 337
312 312 312 313 314 315 317 318 317 317 315 315 315 315 316 327 324 316 320 321 317 315 317 319 322 321 321 321 321 324 326 327 327 326 327 328 328 328 329 341 340 339 339 337 334
311 311 313 313 314 315 317 317 318 318 316 315 313 313 319 324 325 316 314 313 314 317 320 321 323 320 320 319 320 321 323 326 325 326 327 327 327 326 329 340 339 338 336 334 334
311 312 313 314 314 316 317 318 318 317 316 314 312 317 327 327 326 317 317 316 318 319 321 324 324 320 320 319 320 321 323 323 324 325 325 326 328 330 328 340 339 337 335 334 332
311 312 313 314 315 316 318 318 319 316 317 314 314 322 328 327 326 320 319 320 321 321 321 321 321 321 322 320 321 320 322 321 323 325 326 327 327 329 329 338 340 338 336 334 331
311 312 312 313 314 316 318 319 321 316 317 317 324 326 330 325 325 322 322 320 321 321 320 321 321 321 320 319 318 319 319 320 322 324 323 327 329 329 329 331 337 340 338 336 333
310 310 309 311 314 317 319 320 323 318 324 322 324 326 328 322 325 326 324 323 321 319 319 319 317 317 316 316 317 318 319 318 320 321 321 325 327 328 332 333 334 333 337 338 336
307 307 308 310 313 316 319 322 323 326 321 329 328 329 329 328 327 326 324 323 321 320 316 317 315 315 316 317 318 320 319 320 321 322 321 321 326 326 325 327 329 332 334 336 337
304 305 308 309 313 319 319 321 323 321 321 322 323 326 325 325 328 324 323 321 320 317 316 318 315 317 319 319 320 321 322 320 321 321 322 320 320 321 321 323 323 325 327 327 337
303 305 308 309 316 323 323 324 324 323 321 324 324 324 322 327 327 326 322 321 318 318 316 317 320 321 321 322 323 323 322 320 320 321 321 322 320 321 321 322 323 324 327 326 331
304 305 307 309 321 320 322 324 324 323 324 328 328 323 322 322 322 326 324 322 323 318 316 317 320 323 323 323 322 322 321 321 321 321 320 323 321 321 323 320 322 322 323 329 335
304 305 307 311 315 319 323 323 323 324 333 327 325 324 321 320 323 323 325 323 323 325 325 323 322 323 323 323 322 319 322 324 325 322 323 322 321 321 323 323 322 325 330 332 336
305 307 308 315 317 321 324 324 324 328 330 328 323 321 320 320 322 325 325 324 324 325 326 326 325 326 324 324 322 322 324 325 325 321 321 321 323 321 324 329 332 332 332 336 339
305 309 309 311 317 321 323 324 331 329 327 328 324 323 321 321 322 324 326 324 323 327 325 326 326 325 325 323 322 323 323 322 325 323 325 327 329 321 331 333 334 335 336 336 338
307 310 317 321 319 322 323 328 335 332 327 326 326 323 322 322 322 325 325 324 324 325 325 327 329 325 324 323 323 322 322 322 330 327 329 329 333 335 339 338 337 336 335 334 333
309 312 317 323 324 323 326 333 331 328 326 325 325 325 323 323 324 323 323 324 325 325 326 331 333 326 326 326 325 326 325 323 327 330 328 328 336 339 339 339 337 337 335 333 330
312 315 322 324 325 325 329 330 330 328 328 326 326 326 326 326 324 323 324 325 328 329 328 331 330 328 327 325 325 326 326 325 326 331 334 331 335 339 340 340 337 335 333 331 328
314 322 327 325 325 328 331 329 329 328 326 327 327 328 330 331 327 323 325 330 330 329 328 327 329 331 330 327 327 326 324 329 326 328 330 332 343 343 341 338 336 334 331 329 327
314 322 326 324 327 328 329 329 326 329 327 326 326 327 330 331 334 331 331 331 328 330 333 334 333 335 333 328 327 327 328 330 330 331 330 330 334 339 337 337 335 333 332 330 328
314 319 317 321 325 327 329 331 332 329 328 328 328 328 328 332 334 332 331 328 327 333 335 336 332 330 328 326 328 332 332 332 331 332 334 334 333 336 335 334 332 330 327 325 321
314 325 324 323 322 324 324 328 332 326 326 326 329 329 331 333 331 332 330 329 328 326 327 334 333 333 333 332 329 329 330 331 331 334 334 332 333 340 336 333 330 328 325 321 319
317 326 326 326 326 325 328 329 328 329 326 325 326 328 330 333 332 333 330 328 327 327 329 333 333 333 330 329 329 330 330 327 326 330 330 329 328 327 322 320 320 318 318 319 319
317 322 321 321 325 325 325 328 326 326 328 328 327 328 329 332 332 332 332 331 333 328 328 333 335 332 333 330 328 326 325 323 323 323 322 322 325 320 318 317 318 317 319 318 318
313 314 318 321 321 322 325 325 324 324 326 326 326 329 329 327 326 326 326 327 328 332 332 333 331 331 332 330 327 326 325 324 324 323 325 327 323 319 319 319 316 317 318 318 318
Wind_Speed
23 23 24 27 26 26 28 27 31 24 20 19 16 15 14 13 13 9 7 10 14 6 8 4 7 9 17 7 12 7 3 10 6 15 17 8 7 6 9 11 8 5 10 22 30
24 24 27 27 27 27 28 28 31 23 22 19 16 15 13 11 12 13 12 10 11 11 10 8 7 13 4 5 5 6 3 9 12 15 6 4 10 9 9 16 16 18 22 27 28
25 26 28 29 28 29 29 29 29 22 22 18 16 14 10 5 4 7 12 17 13 11 10 14 19 7 7 7 9 8 10 13 2 7 5 3 5 2 10 11 18 22 17 18 18
26 26 29 30 31 30 30 31 25 23 21 18 15 11 2 2 3 2 14 17 12 10 11 10 8 7 6 8 10 6 12 10 4 6 2 2 4 5 0 14 20 21 20 15 12
27 28 32 32 31 31 30 32 22 23 19 15 13 6 4 3 8 7 13 13 13 12 12 8 7 6 7 7 8 6 10 9 7 9 7 6 3 5 2 21 21 20 18 13 10
28 31 33 33 32 32 30 34 23 22 14 13 9 3 1 4 7 12 14 15 11 13 13 16 8 10 8 9 5 10 10 7 7 5 5 7 7 6 6 23 21 20 16 13 12
30 33 34 34 33 33 32 33 24 19 10 9 3 1 5 10 9 14 13 14 15 18 8 24 26 3 8 9 9 10 7 9 10 8 8 6 2 4 6 22 21 19 18 15 16
32 34 35 34 34 33 34 29 24 10 6 5 0 1 6 9 12 17 11 11 15 21 23 16 13 3 3 9 11 9 4 5 11 10 15 5 7 8 4 20 20 21 20 19 18
33 35 37 36 34 33 35 25 20 5 3 3 2 4 7 10 16 19 16 19 15 8 5 10 8 2 8 5 7 7 5 9 12 16 9 6 5 10 5 16 18 18 19 19 18
33 35 37 36 34 33 33 27 8 2 3 5 10 5 7 8 15 18 17 17 5 5 3 1 1 2 4 0 5 10 5 8 9 10 9 9 7 2 3 8 5 12 16 20 21
34 36 37 36 32 32 29 9 4 2 3 8 4 5 3 22 16 13 16 10 7 4 5 7 2 7 13 13 14 9 8 8 8 8 7 6 4 2 3 2 5 10 12 17 23
35 37 37 36 34 23 13 2 5 7 8 13 19 19 27 17 7 9 15 5 5 7 8 3 9 14 12 11 12 8 4 8 9 8 4 7 7 5 8 7 6 2 8 8 15
36 36 38 37 29 8 11 17 8 8 4 9 14 14 7 7 8 11 11 9 8 8 8 9 11 15 14 4 4 3 4 7 8 8 8 6 9 8 9 7 7 7 3 7 8
37 35 38 40 6 19 10 10 12 10 3 6 9 7 10 6 8 13 21 8 5 12 11 9 14 9 5 4 4 3 9 11 9 3 3 4 5 9 8 11 6 7 8 15 22
37 37 36 21 17 8 11 13 13 3 3 9 8 8 11 9 3 12 26 7 12 11 2 10 10 7 5 4 5 9 5 5 6 4 5 9 3 9 7 7 8 9 15 17 23
38 36 36 8 11 13 16 17 12 1 6 9 7 7 10 10 11 9 8 6 7 8 10 9 6 2 1 3 7 6 5 5 5 2 4 8 6 9 7 14 11 12 14 16 18
41 33 31 13 7 8 12 8 1 4 8 11 7 12 10 9 13 9 9 7 6 3 7 10 10 5 5 4 3 3 5 3 4 2 5 7 1 7 11 15 19 16 15 13 15
40 32 13 16 9 9 14 2 4 8 10 10 11 14 13 10 12 11 9 7 10 8 5 6 11 12 7 6 6 7 9 5 2 1 1 7 5 4 20 19 19 18 15 16 14
36 23 10 12 2 4 1 3 5 3 9 11 1 5 8 13 8 9 10 10 11 12 8 4 9 8 10 5 5 4 4 11 1 3 4 2 10 13 17 14 15 16 16 13 12
28 12 10 10 12 6 0 5 5 10 10 9 5 1 5 8 7 8 10 10 5 6 6 1 4 2 6 6 7 1 3 5 4 2 3 3 4 6 13 14 13 11 12 11 10
8 4 4 16 10 1 3 5 9 17 7 5 8 7 8 10 7 8 5 8 6 6 5 4 4 8 5 2 3 6 2 1 4 4 3 2 3 2 10 13 14 12 10 9 9
9 3 10 6 1 3 5 6 5 11 4 1 6 5 6 9 6 5 5 5 6 6 5 1 3 2 6 9 6 5 1 5 5 5 1 3 4 8 13 11 11 10 8 7 8
5 4 13 11 3 5 9 14 18 2 4 6 3 5 6 5 5 8 6 6 8 7 3 3 1 2 9 7 8 4 6 2 5 3 1 3 4 6 13 10 9 10 10 10 11
4 4 3 1 4 6 9 13 9 6 2 5 6 8 7 5 7 4 3 2 8 5 4 4 3 3 5 4 3 7 9 5 5 3 4 5 3 9 9 9 11 10 9 9 8
3 3 4 4 5 10 9 9 11 4 3 3 2 7 7 4 7 8 4 7 7 4 4 4 1 5 6 9 8 8 9 9 6 5 4 4 4 6 8 9 8 8 11 13 11
3 4 6 7 8 8 6 6 11 13 2 2 4 9 9 6 6 7 8 7 3 3 4 2 1 7 5 8 10 10 11 9 10 10 7 5 11 8 8 9 9 10 12 10 9
11 10 4 5 7 6 4 7 11 10 3 6 7 6 11 10 7 5 3 2 4 3 2 5 3 3 3 6 10 7 5 7 6 10 2 5 6 8 8 9 8 9 8 7 6
Wind_Direction
357 354 351 347 344 344 342 340 339 334 332 325 314 312 306 301 303 287 245 230 222 184 202 199 204 235 256 250 251 255 245 258 155 191 241 267 109 126 135 98 66 70 131 141 150
353 351 349 347 344 343 341 340 338 333 329 323 311 308 314 307 307 249 235 244 212 205 198 218 206 220 239 251 243 178 202 245 202 190 240 240 149 163 121 114 98 93 107 133 151
350 349 348 345 343 342 340 339 337 332 330 327 315 304 314 336 302 235 202 213 197 212 221 216 240 208 220 238 248 252 239 257 336 146 27 12 98 24 121 129 143 137 140 146 157
348 347 345 345 343 342 338 339 335 332 329 324 315 306 308 51 13 220 176 189 201 203 205 268 281 269 250 253 262 252 253 260 180 128 318 40 35 9 249 154 149 142 143 151 160
348 346 344 344 342 340 337 337 332 329 325 319 310 302 126 203 252 179 177 184 180 173 205 224 261 256 261 257 290 276 259 271 288 154 204 116 218 208 65 133 136 140 140 151 160
347 344 343 342 340 338 335 335 328 326 320 315 310 160 198 251 184 163 162 162 175 170 218 240 243 238 268 274 290 280 288 282 322 307 257 164 219 149 176 139 139 143 145 156 163
345 343 342 340 338 337 332 331 326 320 312 308 313 116 256 247 202 151 167 174 180 189 223 235 244 282 300 313 274 307 324 324 321 297 291 263 261 288 167 143 145 151 154 167 169
343 342 340 338 337 334 329 328 326 315 302 287 295 277 254 241 166 153 176 199 215 224 229 292 306 339 338 315 330 325 349 18 281 266 259 145 245 264 237 149 161 165 164 173 175
341 341 339 337 335 332 327 326 320 310 286 279 281 211 271 182 167 177 187 209 222 245 294 298 8 352 322 304 329 304 248 244 265 259 249 142 206 246 293 153 172 172 173 175 176
340 339 337 334 334 332 324 328 311 280 299 280 267 302 261 220 203 176 194 227 148 208 226 181 309 224 306 27 242 254 257 267 247 273 263 187 196 231 225 138 173 217 175 177 180
340 338 337 333 331 330 324 350 346 22 236 232 193 246 218 218 176 166 199 224 163 181 204 211 153 217 225 218 231 250 265 270 300 328 23 360 329 258 248 293 277 228 199 181 185
340 339 337 331 330 325 313 269 48 263 298 264 256 257 271 147 163 193 200 166 167 214 221 298 221 236 232 237 232 262 339 321 316 319 347 310 295 273 296 257 257 218 207 199 190
341 341 338 332 330 340 307 285 317 337 286 283 217 236 197 151 203 200 162 218 187 225 234 209 241 230 241 294 351 6 312 300 273 305 335 353 331 305 274 241 253 292 152 63 107
340 339 339 336 342 332 300 6 351 4 317 259 187 209 191 158 263 217 174 196 237 210 227 220 251 218 205 259 297 282 246 245 252 332 284 69 280 284 251 236 234 252 64 72 59
337 336 334 339 297 303 322 337 336 340 337 161 163 182 143 174 172 227 170 207 249 264 222 252 226 256 270 197 205 233 280 5 2 6 24 315 19 276 306 196 226 89 89 84 84
333 331 330 339 291 270 324 325 313 8 246 167 144 181 161 204 263 148 157 180 244 270 289 269 283 269 209 253 222 279 7 352 345 25 334 249 180 284 273 103 94 82 87 90 88
328 326 318 282 234 343 327 311 339 229 308 158 170 168 188 207 240 170 173 177 215 221 269 284 266 220 164 312 269 136 55 347 335 10 211 266 7 220 97 102 111 97 74 76 84
325 328 317 276 272 313 299 330 252 281 284 287 171 166 186 202 226 179 175 206 219 236 281 253 269 207 163 181 204 182 158 168 239 220 231 296 47 30 76 63 67 68 71 70 69
327 329 273 250 216 237 7 239 229 227 2 337 344 166 185 213 194 196 186 204 215 203 197 2 333 128 140 175 166 299 159 222 162 296 44 142 76 57 76 75 71 70 63 58 62
330 312 270 217 191 206 215 259 292 315 304 356 340 274 236 259 228 179 187 215 194 97 97 37 356 109 146 57 335 220 244 21 358 117 261 315 149 160 117 110 92 73 59 50 56
318 301 156 152 146 180 225 244 288 304 43 349 336 338 324 325 274 185 221 31 35 110 80 66 81 299 24 157 322 329 272 340 128 130 176 344 320 354 113 108 99 82 69 59 54
323 291 151 175 162 220 226 243 238 301 111 360 319 298 288 332 319 337 93 71 0 35 55 54 114 351 284 307 309 309 345 120 109 304 5 134 284 112 103 106 100 95 92 82 71
312 271 289 223 242 247 288 291 292 246 9 330 299 328 283 355 340 75 71 31 26 52 44 326 56 34 334 336 12 360 7 37 111 93 218 111 268 88 94 86 92 90 65 57 50
290 302 270 152 221 282 294 293 318 133 7 315 339 339 358 345 304 306 125 72 70 98 123 58 21 131 198 225 333 321 319 330 131 125 225 210 155 100 60 63 56 56 59 58 48
241 263 354 322 337 334 337 337 329 322 215 112 334 268 279 276 305 311 74 130 112 156 87 88 74 9 305 305 316 297 305 309 315 234 172 257 63 93 88 75 56 46 39 50 48
304 353 342 299 296 307 305 316 303 301 197 189 189 306 313 61 59 38 8 29 67 233 119 35 44 25 322 312 301 287 274 278 275 279 277 240 110 117 83 67 45 44 55 46 26
1 333 299 288 310 311 267 263 279 289 66 21 44 10 41 20 357 350 341 347 343 51 91 125 114 61 272 344 347 312 250 259 246 44 45 96 136 85 68 64 47 72 60 42 17